Terminal Aerodrome Forecast
Issued by NWS

Home | Current Version | Previous Version | Text Only | Print | Product List | Glossary On
Versions: 1 2 3 4 5 6 7 8 9 10 11 12 13 14 15 16 17 18 19 20 21 22 23
000
FTUS41 KPHI 261100
TAFMIV
TAF
KMIV 261120Z 2612/2712 07010KT 4SM -SN SCT015 OVC040
      TEMPO 2612/2615 2SM -SN OVC020
     FM261500 06015G25KT 5SM -SNRA BR OVC010
     FM262200 04020G30KT 2SM -SN OVC008
     FM270200 02020G30KT 1SM -SN OVC003=

USA.gov is the U.S. government's official web portal to all federal, state and local government web resources and services.